DLH5LW EDDH-LFML

Flight info

Callsign DLH5LW
Flight time N/A
Altitude 36000
Route WSN5G/33 WSN N125 SILQI N872 MEDIL DCT KOVIN DCT DUCRA UM728 KETEX DCT KOTIS DCT KUKOR DCT UTUVA DCT LERGA
Aircraft A320/M-SDE3FGHIRWY/LB1

Departure

Time 2026-05-05 19:33
Airport Hamburg Helmut Schmidt Airport (EDDH)

Arrival

Time N/A
Airport Marseille Provence Airport (LFML)
Time Latitude Longitude Altitude Speed Heading
2026-05-05 19:02 53.62972 10.00269 51 ft 0 kts 120°
2026-05-05 19:04 53.62971 10.00273 51 ft 1 kts 120°
2026-05-05 19:04 53.62966 10.00287 48 ft 0 kts 120°
2026-05-05 19:23 53.62967 10.00284 51 ft 2 kts 120°
2026-05-05 19:23 53.62980 10.00246 50 ft 4 kts 120°
2026-05-05 19:23 53.62991 10.00214 50 ft 4 kts 125°
2026-05-05 19:24 53.63008 10.00198 47 ft 4 kts 205°
2026-05-05 19:24 53.63023 10.00212 49 ft 0 kts 212°
2026-05-05 19:27 53.63019 10.00208 49 ft 3 kts 212°
2026-05-05 19:27 53.62981 10.00167 52 ft 10 kts 212°
2026-05-05 19:28 53.62912 10.00094 51 ft 12 kts 212°
2026-05-05 19:28 53.62871 10.00039 50 ft 7 kts 233°
2026-05-05 19:28 53.62849 9.99975 50 ft 6 kts 242°
2026-05-05 19:28 53.62830 9.99914 50 ft 7 kts 242°
2026-05-05 19:29 53.62810 9.99823 49 ft 8 kts 271°
2026-05-05 19:29 53.62835 9.99773 48 ft 0 kts 328°
2026-05-05 19:30 53.62836 9.99772 48 ft 1 kts 328°
2026-05-05 19:30 53.62845 9.99764 49 ft 0 kts 332°
2026-05-05 19:33 53.63014 9.99618 49 ft 66 kts 333°
2026-05-05 19:33 53.63615 9.99099 50 ft 129 kts 333°
2026-05-05 19:33 53.64557 9.98289 194 ft 165 kts 334°
2026-05-05 19:33 53.65577 9.97414 921 ft 164 kts 336°
2026-05-05 19:34 53.66610 9.96536 1589 ft 172 kts 337°
2026-05-05 19:34 53.67748 9.95572 1952 ft 194 kts 337°
2026-05-05 19:34 53.69020 9.94491 2362 ft 212 kts 336°
2026-05-05 19:35 53.71424 9.91515 3942 ft 227 kts 294°
2026-05-05 19:35 53.71657 9.88808 4433 ft 252 kts 263°
2026-05-05 19:35 53.71233 9.85815 5000 ft 270 kts 251°
2026-05-05 19:35 53.70560 9.82818 5933 ft 274 kts 248°
2026-05-05 19:36 53.69839 9.79846 6955 ft 273 kts 248°
2026-05-05 19:36 53.69133 9.76866 7953 ft 274 kts 249°
2026-05-05 19:36 53.68462 9.73859 8916 ft 276 kts 250°
2026-05-05 19:36 53.67815 9.70802 9846 ft 277 kts 251°
2026-05-05 19:37 53.67168 9.67639 10346 ft 296 kts 251°
2026-05-05 19:37 53.66483 9.64213 10629 ft 320 kts 251°
2026-05-05 19:37 53.65751 9.60527 10919 ft 341 kts 250°
2026-05-05 19:37 53.64751 9.56913 11508 ft 349 kts 239°
2026-05-05 19:38 53.63363 9.53519 12242 ft 354 kts 234°
2026-05-05 19:38 53.61913 9.50138 12993 ft 358 kts 234°
2026-05-05 19:38 53.60443 9.46716 13732 ft 363 kts 234°
2026-05-05 19:38 53.58955 9.43254 14388 ft 367 kts 234°
2026-05-05 19:39 53.57452 9.39764 15044 ft 370 kts 234°
2026-05-05 19:39 53.55934 9.36244 15701 ft 373 kts 234°
2026-05-05 19:39 53.54401 9.32694 16354 ft 377 kts 234°
2026-05-05 19:39 53.52877 9.29164 16969 ft 380 kts 234°
2026-05-05 19:40 53.51317 9.25552 17586 ft 383 kts 234°
2026-05-05 19:40 53.49746 9.21916 18189 ft 387 kts 234°
2026-05-05 19:40 53.48161 9.18247 18729 ft 390 kts 234°
2026-05-05 19:40 53.46563 9.14558 19274 ft 392 kts 234°
2026-05-05 19:41 53.44948 9.10846 19821 ft 394 kts 234°
2026-05-05 19:41 53.43328 9.07131 20354 ft 396 kts 234°
2026-05-05 19:41 53.41691 9.03387 20888 ft 399 kts 233°
2026-05-05 19:41 53.40069 8.99685 21405 ft 401 kts 233°
2026-05-05 19:42 53.38414 8.95908 21928 ft 403 kts 233°
2026-05-05 19:42 53.36751 8.92110 22446 ft 405 kts 233°
2026-05-05 19:42 53.35156 8.88214 22939 ft 408 kts 239°
2026-05-05 19:42 53.33934 8.83921 23433 ft 411 kts 248°
2026-05-05 19:43 53.32950 8.79424 23841 ft 412 kts 249°
2026-05-05 19:43 53.31953 8.74913 24255 ft 414 kts 248°
2026-05-05 19:43 53.30947 8.70392 24663 ft 416 kts 248°
2026-05-05 19:43 53.29949 8.65920 25077 ft 417 kts 248°